This is the latest recevied weather packets stored in our database for station/object KE8KMM. If no packets are shown the sender has not sent any weather packets the latest 10 day(s).
| Time | Temp. | Humidity | Pressure | Rain* | Wind** | Luminosity | Snow |
|---|---|---|---|---|---|---|---|
| 1777488724 | 15° C | 91% | 1006.2 hPa | 0 mm | - | 213 W/m² | - |
| 1777488421 | 15° C | 92% | 1006.1 hPa | 1.78 mm | - | 197 W/m² | - |
| 1777488120 | 14.44° C | 92% | 1006.5 hPa | 1.78 mm | - | 223 W/m² | - |
| 1777487818 | 15° C | 93% | 1006.3 hPa | 0 mm | - | 219 W/m² | - |
| 1777487515 | 15° C | 93% | 1006.5 hPa | 0 mm | - | 238 W/m² | - |
| 1777487212 | 14.44° C | 93% | 1006.5 hPa | 1.27 mm | - | 193 W/m² | - |
| 1777486909 | 14.44° C | 92% | 1006.6 hPa | 1.27 mm | - | 98 W/m² | - |
| 1777486605 | 14.44° C | 92% | 1006.6 hPa | 0 mm | - | 107 W/m² | - |
| 1777486303 | 14.44° C | 93% | 1006.5 hPa | 0 mm | - | 156 W/m² | - |
| 1777486000 | 14.44° C | 92% | 1006.7 hPa | 0 mm | - | 79 W/m² | - |
| 1777485697 | 14.44° C | 93% | 1006.6 hPa | 0 mm | - | 67 W/m² | - |
| 1777485392 | 14.44° C | 92% | 1006.9 hPa | 0 mm | - | 110 W/m² | - |
| 1777485088 | 15° C | 92% | 1006.7 hPa | 0 mm | - | 139 W/m² | - |
| 1777484786 | 14.44° C | 92% | 1006.6 hPa | 0 mm | - | 156 W/m² | - |
| 1777484481 | 14.44° C | 91% | 1006.6 hPa | 1.78 mm | - | 187 W/m² | - |
| 1777484179 | 14.44° C | 92% | 1006.7 hPa | 1.78 mm | - | 191 W/m² | - |
| 1777483875 | 14.44° C | 92% | 1006.8 hPa | 0 mm | - | 194 W/m² | - |
| 1777483571 | 14.44° C | 94% | 1006.9 hPa | 1.27 mm | - | 455 W/m² | - |
| 1777483266 | 13.89° C | 94% | 1006.7 hPa | 3.05 mm | - | 158 W/m² | - |
| 1777482963 | 13.89° C | 94% | 1006.5 hPa | 1.78 mm | - | 129 W/m² | - |
| 1777482659 | 13.89° C | 95% | 1006.9 hPa | 1.27 mm | - | 123 W/m² | - |
| 1777482356 | 13.33° C | 95% | 1007.4 hPa | 1.27 mm | - | 100 W/m² | - |
| 1777482053 | 13.33° C | 95% | 1007.4 hPa | 3.05 mm | - | 55 W/m² | - |
| 1777481751 | 13.33° C | 94% | 1006.8 hPa | 6.1 mm | - | 104 W/m² | - |
| 1777481448 | 13.33° C | 94% | 1007.3 hPa | 3.05 mm | - | 69 W/m² | - |
* Rain latest hour (hover to see other rain measurements)
** Current wind speed in m/s (hover to see current wind gust speed)